#timestamp,LO_Frequency,Hit,StdDev 
1570834815.2,286047001.1,N
1570834835.0,286046999.4,N
1570834835.9,286046999.4,N
1570834855.8,286046998.9,N
1570834875.6,286046999.6,N
1570834895.4,286046997.8,N
1570834915.3,286046994.9,Y
1570834935.1,286046993.4,P
1570834955.9,286046994.5,N
1570834975.7,286046993.5,N
1570834995.5,286046994.0,N
1570835015.4,286046996.2,N
1570835035.2,286046996.0,N
1570835055.0,286046996.1,N
1570835055.9,286046996.1,N
1570835075.8,286046993.9,Y
1570835095.6,286047001.2,P
1570835115.5,286047000.5,N
1570835135.3,286047000.0,N
1570835155.1,286047001.2,N
1570835175.9,286047001.1,N
1570835195.7,286046998.5,N
1570835215.6,286046998.7,N
1570835235.4,286047000.8,N
1570835255.2,286046998.4,N
1570835275.1,286046998.3,N
1570835276.0,286046998.3,N
1570835295.8,286046998.4,N
1570835315.7,286046998.9,N
1570835335.5,286046999.4,N
1570835355.3,286046999.3,N
1570835375.2,286046999.4,N
1570835395.9,286046996.5,N
1570835415.7,286046997.3,N
1570835435.6,286046997.8,N
1570835455.4,286046999.5,N
1570835475.3,286046999.2,N
1570835495.1,286046997.3,N
1570835496.0,286046997.3,N
1570835515.9,286046997.6,N
1570835535.7,286046999.3,N
1570835555.5,286046999.3,N
1570835575.4,286046996.6,N
1570835595.2,286046999.2,N
1570835615.0,286046999.5,N
1570835615.9,286046999.5,N
1570835635.8,286046996.7,N
1570835655.6,286046997.0,N
1570835675.5,286046997.8,N
1570835695.3,286046994.9,Y
1570835715.1,286046999.0,P
1570835735.9,286046996.5,P
1570835755.7,286046998.5,N
1570835775.6,286046997.1,Y
1570835795.4,286047000.5,P
1570835815.2,286046998.7,N
1570835835.1,286046996.7,P
1570835836.0,286046996.7,N
1570835855.8,286046996.8,N
1570835875.6,286046996.6,N
1570835895.5,286046996.7,N
1570835915.3,286046999.2,N
1570835935.2,286046999.4,N
1570835955.9,286047011.9,Y
1570835975.7,286046999.3,P
1570835995.6,286046996.5,P
1570836015.4,286046998.2,N
1570836035.3,286047000.3,N
1570836055.1,286046998.4,N
1570836056.0,286046998.4,N
1570836075.8,286046998.5,N
1570836095.7,286047001.1,N
1570836115.5,286047000.4,N
1570836135.3,286047000.5,N
1570836155.2,286047002.3,N
1570836175.0,286047001.8,N
1570836175.9,286047001.8,N
1570836195.8,286047001.7,N
1570836215.6,286047004.1,N
1570836235.4,286046999.9,N
1570836255.3,286047000.0,N
1570836275.1,286047002.7,N
1570836295.9,286047002.7,N
1570836315.7,286047001.3,N
1570836335.5,286047004.4,N
1570836355.4,286047002.8,N
1570836375.2,286046998.8,N
1570836395.0,286047001.1,N
1570836395.9,286047001.1,N
1570836415.8,286047000.3,N
1570836435.6,286047000.6,N
1570836455.5,286047002.8,N
1570836475.3,286047002.1,N
1570836495.1,286047002.5,N
1570836515.9,286047004.2,N
1570836535.7,286047001.7,N
1570836555.5,286047002.0,N
1570836575.4,286047000.1,N
1570836595.2,286047000.0,N
1570836615.1,286046999.8,N
1570836616.0,286046999.8,N
1570836635.8,286046999.6,N
1570836655.6,286046997.3,N
1570836675.5,286046996.7,N
1570836695.3,286047001.2,N
1570836715.2,286047002.8,N
1570836735.9,286047001.8,N
1570836755.7,286047001.6,N
1570836775.6,286047001.7,N
1570836795.4,286047002.2,N
1570836815.2,286047001.0,N
1570836835.1,286046999.3,N
1570836855.3,286046998.1,N
1570836875.2,286047004.3,N
1570836895.9,286047002.5,N
1570836915.7,286047001.6,N
1570836935.6,286047000.0,N
1570836955.4,286046999.0,N
1570836975.2,286046999.8,N
1570836995.1,286047000.0,N
1570836996.0,286047000.0,N
1570837015.8,286047002.3,N
1570837035.7,286047000.7,N
1570837055.5,286047002.4,N
1570837075.4,286047000.3,N
1570837095.8,286047000.5,N
1570837115.6,286047000.3,N
1570837135.5,286047001.0,N
1570837155.3,286047002.8,N
1570837175.1,286047002.4,N
1570837195.9,286047002.3,N
1570837215.7,286046999.7,N
1570837235.6,286047000.7,N
1570837255.4,286047002.4,N
1570837275.2,286047001.4,N
1570837295.1,286047001.4,N
1570837296.0,286047001.4,N
1570837315.8,286047003.1,N
1570837335.7,286047003.5,N
1570837355.5,286047003.9,N
1570837375.4,286047001.3,N
1570837395.2,286047003.9,N
1570837415.0,286047003.8,N
1570837415.9,286047003.8,N
1570837435.8,286047005.5,Y
1570837455.6,286047001.7,P
1570837475.5,286046999.7,P
1570837495.3,286047000.3,N
1570837515.1,286047001.1,N
1570837535.9,286047000.7,N
1570837555.7,286047002.8,Y
1570837575.5,286046999.8,P
1570837595.4,286046999.1,N
1570837615.2,286046997.9,N
1570837635.1,286046996.4,Y
1570837636.0,286046996.4,P
1570837655.8,286046995.1,P
1570837675.7,286046996.6,N
1570837695.5,286046998.5,N
1570837715.3,286047000.5,N
1570837735.2,286046999.8,N
1570837755.0,286047000.0,N
1570837755.9,286047000.0,N
1570837775.8,286047001.0,N
1570837795.6,286046998.2,N
1570837815.4,286046998.4,N
1570837835.3,286047001.2,N
1570837855.1,286047000.1,N
1570837905.9,286046999.9,E
1570837915.8,286047002.8,N
1570837935.6,286047000.9,P
1570837955.5,286046998.4,N
1570837975.3,286046999.2,N
1570837995.1,286046997.3,N
1570838015.9,286046997.0,N
1570838035.7,286046998.5,N
1570838055.6,286046998.3,N
1570838075.4,286047000.7,N
1570838095.5,286046999.9,N
1570838115.4,286047002.4,N
1570838135.2,286046999.8,N
1570838155.0,286047000.3,N
1570838156.0,286047000.3,N
1570838175.8,286047000.5,N
1570838195.6,286046999.4,N
1570838215.5,286046999.0,N
1570838235.3,286047000.5,N
1570838255.1,286047004.4,N
1570838275.9,286047002.8,N
1570838295.7,286047001.9,N
1570838315.6,286046998.2,N
1570838335.4,286046996.6,N
1570838355.2,286046999.3,N
1570838375.1,286047001.2,N
1570838376.0,286047001.2,N
1570838395.8,286047000.2,N
